Voltar ao catálogo

IRIDIUM 33 DEB

AtivoPO
NORAD 36028·DEBRIS·🇺🇸 United States

Lançado Sep 14, 1997 de Baikonur Cosmodrome

Loading…

Próximas Passagens (próximas 24 horas)

TLE

EnvelhecendoSource: Space-Track

Época: Sep 10, 2026, 02:21 UTC

1 36028U 97051VK  26253.09846592  .00021747  00000-0  13791-2 0  9996
2 36028  86.3114 177.5606 0015490 134.5241 225.7264 15.08708147911993

Acompanhe IRIDIUM 33 DEB em tempo real com AllMySat

Download on the App Store